Location: San Martino di Castrozza
(46.2667°N, 11.8000°E)
Time: 16:38:04
(UTC+00:00)

Cosmos 2369 Rocket - Pass Details

Date: 23 April 2021
Orbit: 828 x 853 km, 71.0° (Epoch: 12 May)

Event Time Altitude Azimuth Distance (km) Brightness Sun altitude
Exits shadow 03:04:59 14° 224° (SW) 2,156 3.7 -11.3°
Maximum altitude 03:09:42 57° 301° (WNW) 980 2.4 -10.6°
Drops below altitude 10° 03:15:15 10° 20° (NNE) 2,457 5.4 -9.8°
Sets 03:17:46 0° 25° (NNE) 3,399 6.3 -9.4°
